Regional Weather Roundup
Issued by NWS

Home | Current Version | Previous Version | Text Only | Print | Product List | Glossary On
Versions: 1 2 3 4 5 6 7 8 9 10 11 12 13 14 15 16 17 18 19 20 21 22 23 24 25 26 27 28 29 30 31 32 33 34 35 36 37 38 39 40 41 42 43 44 45 46 47 48 49 50
000
ASUS43 KLMK 291410
RWRKY
KENTUCKY REGIONAL WEATHER ROUNDUP
NATIONAL WEATHER SERVICE LOUISVILLE KY
1000 AM EDT THU JUN 29 2017

NOTE "FAIR" INDICATES FEW OR NO CLOUDS BELOW 12,000 FEET
WITH NO SIGNIFICANT WEATHER AND/OR OBSTRUCTIONS TO VISIBILITY.

KYZ001>023-026-027-061>063-070>075-291500-
WESTERN AND SOUTH CENTRAL KENTUCKY

CITY           SKY/WX    TMP DP  RH WIND       PRES   REMARKS
PADUCAH        SUNNY     78  68  71 SW10G17   29.99F
HENDERSON      SUNNY     78  69  73 SW14G20   29.99F
OWENSBORO      SUNNY     78  69  73 SW17      30.00F
HOPKINSVILLE   MOSUNNY   76  69  77 S7        30.05S
BOWLING GREEN  MOSUNNY   79  69  71 S14       30.07F
GLASGOW        CLOUDY    75  65  72 S6        30.09F
$$

KYZ024-025-028>034-038-045-046-053-291500-
NORTH CENTRAL KENTUCKY

CITY           SKY/WX    TMP DP  RH WIND       PRES   REMARKS
LOUISVILLE/SDF MOSUNNY   80  66  62 SW16G24   30.00F
LOUISVILLE/LOU MOSUNNY   79  68  69 S9        30.01F
FORT KNOX      SUNNY     79  67  67 S17G25    30.02F
$$

KYZ035>037-039>044-047>052-055>060-089>105-291500-
NORTHEAST KENTUCKY

CITY           SKY/WX    TMP DP  RH WIND       PRES   REMARKS
LEXINGTON      MOSUNNY   78  64  61 SW17G24   30.07F
COVINGTON      PTSUNNY   75  66  73 S15G22    30.00F
FRANKFORT      MOSUNNY   78  65  63 SW16G25   30.03F
$$

KYZ054-064>069-076>088-106>120-291500-
SOUTHEAST KENTUCKY

CITY           SKY/WX    TMP DP  RH WIND       PRES   REMARKS
JACKSON        SUNNY     74  62  66 VRB5      30.14F
LONDON         SUNNY     76  62  62 SW8       30.14F
SOMERSET       CLOUDY    73  63  68 S7        30.14S
MIDDLESBORO    SUNNY     76  63  64 SE3       30.17S
MONTICELLO     PTSUNNY   76  67  73 SE8       30.14F
$$




USA.gov is the U.S. government's official web portal to all federal, state and local government web resources and services.